Find Starlink 37055

NORAD ID: 68147 Int'l Des: 2026-049 Owner: SPXS Country: US Constellation: starlink operational
LEOCIRCULARRETROGRADE

Live Position

Loading 3D Globe...

About Starlink 37055

Description loading...

Upcoming Passes

Passes for default location (London). Set your location on the main map for personalized predictions.

Altitude History

Loading altitude history...

Two-Line Element Set

1 68147U 26049F 26119.83335647 -.01929865 00000-0 -25706-1 0 9998
2 68147 97.2833 141.6663 0001354 75.5976 269.7817 15.61369087 6023
Epoch: Apr 29, 2026 • Age: 4 hours

Current Status

Altitude 407.6 km
Velocity 7.66 km/s
Sub-Earth Point -53.63°S, 91.85°E
Launch Date Mar 13, 2026
Age 0.1 years
Type internet

Technical Details

Classification Payload
Mass 575.00 kg
Dry Mass 530.00 kg
Total Mass 575.00 kg
Length 0.30 m
Diameter 4.10 m
Span 29.00 m
Shape Box + pan
Manufacturer SPXS
Bus Type Starlink V2MO
Phase Status In Orbit
Owner/State SPXS/US

Most Searched